Home > Weather > Providence > Past weeks

Flag for USA Past Weather in Providence, Rhode Island, USA — Yesterday and Last 2 Weeks

Now
74 °F

Light rain. Partly sunny.


Feels Like: 73 °F
Forecast: 69 / 80 °F
Wind: 6 mph from North

Location: Green State Airport

Current Time: Jul 29, 2016 at 11:55:40 AM

Latest Report: Jul 29, 2016 at 10:51 AM


Visibility: 7 mi

Pressure: 29.88 "Hg

Humidity: 88%

Dew Point: 70 °F

Location of ProvidenceLocation

Past Weather in Providence — Graph

°F

Providence Temperature Yesterday

Maximum temperature yesterday: 86 °F (at 11:51 AM)
Minimum temperature yesterday: 69 °F (at 4:51 AM)
Average temperature yesterday: 79 °F

High & Low Weather Summary for the Past Weeks

 TemperatureHumidityPressure
High93 °F (Jul 23, 3:51 PM)97% (Jul 15, 2:58 AM)30.22 "Hg (Jul 15, 2:58 AM)
Low60 °F (Jul 20, 4:51 AM)28% (Jul 19, 4:51 PM)29.73 "Hg (Jul 23, 4:51 PM)
Average78 °F65%29.94 "Hg
* Reported Jul 14 9:51 AM — Jul 29 9:51 AM, Providence, Weather by CustomWeather, © 2016

Note: Actual official high and low records may vary slightly from our data, if they occured in-between our weather recording intervals... More about our weather records

Advertising

Providence Weather History for the Previous 24 Hours

Scroll right to see more
 ConditionsComfort  
Time TempWeatherWind HumidityBarometerVisibility
9:51 AM
Fri, Jul 29
74 °FLight rain. Fog.7 mph88%29.86 "Hg5 mi
8:51 AM74 °FLight rain. Fog.7 mph82%29.86 "Hg6 mi
7:51 AM74 °FLight rain. Overcast.7 mph82%29.86 "Hg10 mi
6:51 AM74 °FLight rain. Fog.9 mph82%29.85 "Hg5 mi
5:51 AM75 °FLight rain. Fog.6 mph90%29.85 "Hg5 mi
4:51 AM75 °FLight rain. Fog.3 mph94%29.85 "Hg5 mi
3:51 AM75 °FLight rain. Fog.No wind94%29.84 "Hg5 mi
2:59 AM75 °FFog.5 mph94%29.86 "Hg6 mi
2:51 AM75 °FFog.6 mph94%29.86 "Hg6 mi
1:51 AM76 °FFog.7 mph91%29.87 "Hg6 mi
12:51 AM76 °FFog.6 mph91%29.87 "Hg6 mi
11:51 PM
Thu, Jul 28
76 °FFog.7 mph91%29.88 "Hg6 mi
10:51 PM77 °FMostly cloudy.6 mph88%29.89 "Hg7 mi
9:51 PM77 °FPartly cloudy.6 mph85%29.88 "Hg8 mi
8:51 PM79 °FBroken clouds.6 mph77%29.87 "Hg10 mi
7:51 PM80 °FBroken clouds.9 mph74%29.87 "Hg10 mi
6:51 PM82 °FBroken clouds.13 mph65%29.87 "Hg10 mi
5:51 PM85 °FPartly sunny.12 mph59%29.86 "Hg10 mi
4:51 PM86 °FPartly sunny.15 mph53%29.85 "Hg10 mi
3:51 PM84 °FPartly sunny.13 mph65%29.85 "Hg10 mi
2:51 PM84 °FPartly sunny.16 mph63%29.86 "Hg10 mi
1:51 PM86 °FPartly sunny.14 mph63%29.88 "Hg10 mi
12:51 PM85 °FPartly sunny.13 mph65%29.89 "Hg10 mi
11:51 AM86 °FBroken clouds.10 mph61%29.90 "Hg10 mi
Weather by CustomWeather, © 2016

See weather overviewHow to use our weather pages